Theta_e
335 337 338 339 339 340 342 344 345 346 347 348 349 349 349 349 350 349 351 351 350 347 346 345 344 343 344 345 345 347 348 350 353 354 357 357 359 358 358 358 360 361 361 358 356 361 357 358 358 358 359 358 356 354 354 353 353 355 356 358 356 351 351 351 348 344 344 342 343 343 344 347 349 351 347 348 350 353 354 354 355 355 354 354 355
334 335 337 338 339 340 341 342 345 343 345 347 348 349 349 349 349 349 350 350 349 348 347 346 345 345 344 344 345 347 349 351 351 354 356 358 359 359 360 359 360 360 362 359 358 359 357 358 358 358 358 357 356 357 355 361 359 353 351 351 354 353 351 353 353 342 340 339 337 338 344 341 348 355 348 347 348 350 353 353 354 353 353 354 355
332 333 335 337 338 339 340 341 343 344 345 346 348 349 348 348 349 349 350 350 349 349 347 346 346 347 346 345 346 346 351 353 352 355 358 358 359 360 361 360 359 360 362 361 358 358 357 357 358 358 357 358 358 355 356 359 353 352 350 351 352 353 356 357 349 344 341 342 341 340 334 333 343 342 343 345 346 347 349 350 352 352 353 355 356
331 332 333 336 337 338 339 340 342 343 344 345 347 348 348 348 348 349 349 349 349 349 350 347 347 347 348 346 347 349 349 354 355 356 357 357 357 359 361 360 359 360 361 361 360 359 357 357 357 358 357 358 357 354 353 356 354 352 351 357 351 349 347 350 356 349 345 343 336 333 332 332 330 335 333 339 341 343 344 346 349 351 353 354 355
331 332 332 334 335 336 338 340 341 342 343 344 346 347 348 347 348 348 348 349 349 351 350 347 349 345 345 345 348 349 350 350 350 351 355 357 357 358 359 360 360 360 361 362 362 359 358 357 357 358 358 358 357 355 355 356 355 353 352 356 354 349 347 349 353 355 346 349 341 335 332 332 331 333 332 339 339 341 339 340 345 349 350 352 353
333 332 332 334 335 336 338 339 340 341 342 344 346 347 348 347 348 348 348 348 348 349 349 346 347 342 340 340 340 342 342 344 345 347 350 354 356 358 359 360 360 360 361 362 363 360 358 356 356 358 358 359 358 357 356 356 355 355 354 355 355 352 351 349 348 354 356 356 342 345 343 335 336 336 333 334 338 345 344 345 342 345 348 349 352
335 335 334 333 334 335 337 338 340 340 342 344 346 347 347 347 347 347 347 347 348 348 348 347 345 343 341 340 340 341 341 343 348 350 352 355 358 357 358 360 361 360 361 362 362 362 359 357 356 358 359 359 361 358 357 357 356 356 356 355 355 358 351 348 347 348 349 353 353 350 350 348 343 341 337 332 333 338 340 341 340 340 342 344 344
335 335 335 333 334 335 335 338 339 341 343 344 345 346 346 347 347 347 347 348 348 348 347 347 344 343 341 340 341 340 341 342 346 349 353 356 356 357 358 359 361 361 361 362 362 362 360 357 358 357 358 359 361 358 358 358 358 358 359 356 356 359 351 350 347 346 346 347 355 354 350 351 344 341 338 337 333 330 334 337 339 340 340 340 342
336 335 335 334 333 335 337 337 339 341 342 343 344 345 346 347 348 347 347 348 347 348 347 346 346 344 343 340 340 342 342 344 348 352 352 356 355 356 357 358 360 361 362 362 362 362 363 359 358 358 358 358 363 361 359 358 358 357 357 357 356 356 354 350 349 348 345 346 348 346 346 345 343 342 342 343 339 333 333 332 337 340 340 342 341
337 337 337 337 334 334 337 338 339 340 342 344 344 344 345 346 347 347 346 347 347 347 347 345 346 346 343 341 339 339 344 345 348 349 351 354 353 354 356 357 358 359 361 362 361 361 363 362 359 358 359 358 362 362 360 359 358 357 357 357 356 356 356 356 352 348 348 349 349 349 346 345 342 339 337 337 336 334 332 334 335 335 336 342 341
336 337 338 338 338 335 336 337 338 340 341 342 343 343 344 345 346 346 346 347 347 346 347 345 345 345 343 342 340 339 341 343 345 347 350 351 351 352 355 356 357 358 360 361 361 360 361 363 361 359 360 362 363 362 361 360 359 358 357 357 358 357 356 357 358 356 351 352 351 351 349 344 342 337 339 340 337 336 336 334 336 340 336 337 346
336 337 337 338 338 336 335 336 337 338 340 340 342 342 343 344 345 345 345 346 347 346 347 345 345 345 344 343 341 340 340 342 344 346 348 350 351 351 354 355 355 357 358 358 358 359 360 361 363 361 360 361 362 363 362 361 360 358 357 357 357 358 357 357 356 356 356 355 354 352 349 345 344 343 343 344 343 341 337 335 336 339 341 339 340
335 336 337 337 338 336 334 335 336 337 338 339 340 341 342 343 344 344 344 346 346 346 346 346 345 345 344 343 342 342 341 342 344 346 348 350 350 351 352 352 354 354 355 356 357 357 359 358 360 360 359 360 362 362 362 362 360 358 357 356 357 357 358 358 357 356 356 357 357 354 354 350 349 348 347 345 343 342 339 338 338 336 338 337 343
335 336 337 337 338 338 335 335 335 336 337 338 339 341 341 343 344 344 344 345 346 346 346 345 345 345 345 344 343 343 341 341 342 345 348 350 351 351 351 352 353 353 354 355 357 357 358 359 360 360 361 360 361 361 361 361 360 358 357 357 356 358 358 358 358 357 357 358 357 356 354 354 353 351 350 347 344 343 342 339 339 339 337 339 340
335 335 336 337 338 338 336 335 335 336 337 338 339 340 341 342 343 344 343 344 345 346 346 345 345 345 345 345 344 344 342 342 341 344 347 348 350 350 351 353 353 354 354 356 357 357 357 358 359 359 359 359 360 360 360 361 361 359 359 358 358 358 358 358 358 357 357 357 358 357 356 354 354 354 351 349 349 348 347 344 343 337 337 334 338
334 335 336 337 338 339 337 336 335 336 337 337 338 339 340 341 343 343 344 344 345 346 346 346 346 346 346 345 344 345 346 343 343 345 345 348 349 350 350 352 353 354 355 355 355 356 356 356 358 359 359 359 359 359 360 359 358 358 357 358 357 359 359 358 358 357 357 358 358 358 357 356 357 355 354 354 352 351 349 345 345 341 338 336 336
334 335 335 336 338 339 339 337 336 336 336 336 338 339 340 341 342 343 344 344 344 346 346 346 346 345 345 345 345 344 344 342 341 342 342 345 348 350 350 351 352 354 354 355 354 355 356 356 357 357 358 358 358 359 358 358 357 357 357 356 357 358 360 359 359 358 359 358 358 358 358 359 359 358 357 357 357 354 350 348 344 343 344 341 337
336 336 337 337 338 339 339 338 337 336 336 336 337 339 340 341 342 342 343 343 344 345 346 346 346 345 345 345 345 345 344 344 343 342 342 343 344 347 349 350 351 352 354 354 354 354 354 359 356 357 358 358 358 358 358 357 357 357 357 357 357 359 359 360 360 360 359 359 359 359 358 358 360 359 359 357 358 356 350 348 347 345 345 347 342
336 335 336 336 337 338 338 338 338 338 338 337 337 339 340 341 342 342 342 343 344 345 346 347 347 346 346 345 345 344 344 345 344 344 343 342 342 343 346 349 350 352 354 354 353 353 353 355 356 356 357 357 357 357 358 357 356 356 356 356 357 358 358 358 359 359 359 359 358 357 357 357 358 358 359 358 358 358 354 352 350 346 344 350 346
336 336 336 337 338 338 338 338 338 338 338 337 337 338 338 340 342 342 343 344 345 345 346 346 346 347 346 346 346 346 345 345 345 344 341 341 342 342 343 346 348 351 351 352 352 352 352 353 354 355 355 356 356 356 357 357 356 356 356 355 356 356 356 356 357 357 357 358 357 356 356 356 356 357 357 357 358 358 356 354 352 349 347 347 347
336 337 337 337 338 338 339 339 339 339 340 339 337 336 338 339 340 342 342 342 343 345 345 346 347 347 347 346 345 345 344 345 344 344 342 341 342 344 342 344 347 349 351 351 351 352 352 352 353 355 354 355 355 355 357 357 356 356 355 356 356 355 355 355 356 356 356 357 357 355 356 356 356 356 357 356 356 357 357 355 353 351 349 347 348
336 337 338 338 338 339 340 340 340 339 339 339 337 337 337 338 340 341 342 342 343 344 345 346 347 347 346 346 346 345 345 344 343 344 343 342 341 342 343 344 343 346 349 350 351 351 352 351 352 353 354 355 355 355 355 357 356 355 355 354 355 355 355 355 355 355 355 355 356 356 355 355 355 355 355 355 356 356 356 355 353 352 352 350 349
336 337 338 339 339 339 339 339 339 339 339 340 338 337 337 337 339 341 341 342 343 344 346 347 346 346 346 347 346 345 345 343 343 343 343 342 341 341 343 343 343 344 348 349 350 351 351 351 351 351 353 354 354 354 355 356 356 356 355 355 355 355 355 354 354 354 354 355 354 355 355 355 355 354 355 355 355 356 356 356 355 354 353 353 351
333 340 338 339 339 339 339 339 339 339 339 339 339 339 338 337 338 340 341 342 343 344 345 346 346 346 346 346 346 346 344 343 342 343 342 343 342 341 343 342 342 343 345 348 350 350 351 351 350 351 351 352 353 354 354 355 355 356 355 355 356 355 355 355 355 355 355 355 354 354 354 355 355 355 355 355 355 355 356 356 356 355 355 354 354
324 329 334 338 338 338 338 339 339 340 339 340 340 340 339 338 338 339 340 342 343 344 344 345 346 345 345 345 345 345 344 343 342 342 342 343 343 341 341 341 341 342 344 346 349 350 350 349 349 349 350 351 352 353 353 353 354 355 355 355 355 355 356 356 356 356 357 356 355 354 355 355 355 354 355 354 355 355 354 354 355 355 355 356 355
320 322 325 328 332 336 341 339 339 339 339 340 341 340 340 340 339 340 340 341 342 343 344 344 345 345 345 344 344 344 344 343 343 342 342 343 343 342 341 341 341 340 342 344 346 348 349 348 349 349 350 351 352 352 352 353 353 354 355 355 355 355 355 356 356 356 356 357 356 355 355 355 354 354 354 355 355 355 354 353 353 354 354 354 355
319 320 321 324 326 328 331 336 340 339 340 340 340 341 341 341 341 341 341 342 342 343 344 343 344 344 344 344 344 344 344 343 343 343 343 343 342 343 342 341 342 341 340 340 343 346 348 348 348 348 348 349 350 352 352 352 353 354 355 355 354 355 355 355 355 355 356 356 356 356 356 356 355 355 354 354 355 355 354 355 355 355 354 353 353
318 319 319 321 323 325 327 329 332 338 341 340 341 342 342 342 341 342 342 342 343 343 343 343 344 344 344 344 344 345 344 344 344 344 343 342 342 342 343 343 343 342 340 340 339 341 344 347 347 347 348 348 348 349 351 352 352 353 353 354 354 355 354 354 355 355 355 355 356 356 356 356 356 357 356 356 356 355 355 354 356 355 355 353 353
317 318 319 320 320 322 324 326 328 331 334 340 341 342 343 344 343 344 343 343 344 343 343 343 344 344 344 345 346 345 345 345 346 344 343 342 342 342 342 342 343 343 343 342 341 340 340 342 345 346 347 347 346 346 348 349 350 352 353 352 354 354 354 354 354 354 355 355 356 356 356 357 358 359 358 357 357 357 355 355 356 355 355 354 354
315 317 318 319 320 321 322 324 326 328 330 334 338 341 342 343 343 344 345 345 345 344 343 343 343 344 346 347 347 347 346 346 345 344 344 343 342 342 341 341 341 342 343 344 344 343 341 340 341 342 344 344 346 346 344 336 340 350 351 351 352 353 354 354 354 354 354 354 354 355 356 359 360 359 354 351 348 351 357 356 356 356 355 355 353
315 316 317 318 319 320 321 322 324 326 329 331 333 340 342 343 344 344 345 346 346 345 344 344 344 345 346 347 348 347 347 346 345 345 345 344 343 342 342 341 340 340 341 342 344 343 342 342 341 341 341 342 343 344 336 330 331 335 348 351 351 352 353 354 354 354 353 354 354 355 355 357 361 363 360 349 346 344 345 348 352 356 357 356 354
314 316 317 317 318 319 320 321 323 326 328 329 332 335 339 342 344 345 345 347 347 346 345 345 346 347 347 347 348 348 348 347 347 346 346 345 344 343 342 341 340 339 340 340 340 341 342 343 342 342 342 342 342 336 329 329 330 329 336 350 351 350 351 352 353 353 353 354 354 353 354 355 356 358 360 361 355 347 342 342 342 344 348 351 352
313 315 316 317 317 319 320 321 323 326 327 330 332 332 334 336 343 346 347 347 347 347 347 347 347 347 348 348 349 348 348 348 348 347 347 346 345 344 343 342 340 341 340 340 339 339 339 340 341 342 341 343 343 333 327 327 328 328 328 339 349 350 350 351 352 352 352 353 353 354 353 354 354 358 359 359 360 360 348 340 340 342 345 344 338
314 314 316 317 318 320 321 322 323 326 328 330 333 333 334 337 341 347 347 348 348 349 348 348 349 348 349 349 349 349 348 349 349 349 348 347 346 345 344 344 343 343 341 339 339 338 338 339 339 339 340 341 342 333 326 324 324 325 327 331 346 348 349 350 350 351 352 353 353 352 352 353 355 356 358 359 359 358 358 357 354 352 352 352 346
312 314 315 317 318 319 320 321 323 326 327 328 331 332 335 337 341 344 346 345 349 349 349 349 349 349 349 349 348 348 348 349 349 349 348 347 347 346 346 345 345 343 342 341 339 339 338 339 338 338 338 338 339 330 324 322 321 321 324 329 343 346 348 349 350 351 351 352 353 353 353 353 353 354 356 357 357 357 357 356 356 355 354 354 355
312 313 315 316 317 318 319 321 325 325 326 329 329 332 334 337 341 343 344 345 345 346 348 349 348 348 348 348 347 347 349 350 350 350 349 348 348 347 346 347 347 345 345 344 343 342 340 339 339 339 338 338 339 326 322 321 320 320 322 335 341 343 345 347 348 350 351 352 353 353 353 353 353 354 353 344 351 357 356 355 354 355 355 355 354
313 314 314 317 318 319 320 323 323 323 326 327 330 332 335 338 341 342 344 345 344 344 344 345 348 349 349 349 349 349 350 350 351 350 350 349 349 349 349 349 347 347 345 345 344 343 343 341 341 340 339 338 339 331 321 318 318 318 321 336 340 342 344 345 346 349 350 351 352 353 353 353 354 354 347 334 334 352 355 353 353 352 353 352 353
314 315 316 317 318 320 322 322 321 323 325 327 329 331 333 337 340 342 343 345 345 344 345 346 347 348 351 352 352 351 351 352 352 351 351 351 352 352 351 352 349 348 347 347 346 346 345 345 343 341 341 340 339 333 320 317 316 317 324 337 339 341 342 344 346 348 350 351 352 357 357 353 353 354 339 332 330 343 353 354 353 351 351 351 352
314 314 314 316 317 320 321 321 321 320 323 326 328 331 333 335 338 340 341 341 342 343 344 345 346 348 350 352 354 353 353 353 353 353 353 353 353 353 354 354 352 351 350 350 350 348 347 347 345 344 342 341 342 336 321 317 316 315 323 337 340 341 341 343 344 346 349 350 351 355 357 353 352 347 333 330 328 339 352 353 353 352 350 350 352
314 315 317 318 319 318 319 319 319 320 323 325 327 329 331 332 334 338 339 338 339 341 343 344 346 348 349 352 354 355 355 354 354 354 355 355 356 355 355 355 354 354 352 352 351 351 349 349 348 347 346 344 344 344 339 318 315 314 316 337 341 341 340 341 343 344 345 348 350 351 349 334 331 331 328 325 324 325 348 353 353 351 350 350 354
313 314 319 317 316 317 317 319 320 321 322 324 327 328 329 329 332 334 335 336 339 341 342 344 346 347 346 346 350 354 355 356 356 356 356 357 357 356 356 355 354 355 354 353 352 352 351 350 350 350 349 348 347 346 344 321 315 313 313 322 340 341 342 343 343 344 346 346 348 350 351 338 326 324 323 321 320 319 329 351 353 351 352 351 352
314 316 317 316 316 316 317 318 320 321 322 324 325 324 325 327 328 328 331 333 335 338 341 343 345 346 347 346 344 345 349 353 355 354 351 351 355 358 357 356 355 355 354 353 353 352 352 351 352 351 350 349 347 338 348 327 317 313 312 313 336 343 343 344 344 345 345 346 347 349 350 340 325 322 321 319 317 318 319 343 351 332 332 332 347
310 312 314 317 315 315 316 317 319 320 321 324 324 323 323 324 325 327 329 330 331 334 337 340 345 347 349 349 347 346 346 345 348 353 353 351 353 356 356 356 356 355 354 353 353 353 352 351 351 351 351 351 351 349 330 341 321 313 311 310 318 332 329 346 344 344 345 346 348 350 351 340 324 318 317 317 317 318 321 331 325 324 325 328 342
311 312 313 316 315 315 315 317 319 321 321 322 324 322 322 322 323 326 327 329 329 330 333 339 344 349 349 350 349 347 348 350 349 349 349 350 353 354 355 356 356 355 354 353 353 352 352 351 350 350 351 351 352 351 337 326 333 316 312 310 311 317 324 340 346 346 347 348 349 350 347 329 320 313 313 316 317 318 329 320 317 320 324 332 341
309 310 314 315 314 314 314 316 319 320 322 322 323 322 322 321 323 326 326 326 327 329 332 338 342 342 345 351 353 353 354 353 352 350 347 346 346 349 352 354 355 354 353 352 352 352 351 351 350 350 351 351 352 351 351 336 323 322 314 311 311 312 316 320 340 347 348 349 337 328 326 322 320 315 314 316 317 316 315 318 318 319 333 338 340
310 310 311 314 314 314 314 314 318 320 321 323 322 322 320 321 325 325 325 325 326 327 329 333 336 338 339 340 341 345 350 352 352 351 350 348 346 347 347 350 353 353 353 352 352 351 351 351 350 350 350 351 352 352 351 350 333 327 321 314 313 312 316 317 327 341 334 332 328 324 322 321 321 322 329 333 336 336 320 318 320 326 333 338 340
308 310 312 311 312 312 313 314 315 319 320 321 321 322 323 323 323 323 324 325 325 325 326 328 330 333 336 338 339 341 344 348 351 352 353 350 348 347 347 347 348 351 352 352 351 351 350 350 349 350 351 351 351 351 351 351 351 345 340 332 320 320 315 317 325 334 332 339 337 335 337 329 331 328 332 333 333 335 332 329 330 334 337 340 343
309 310 311 311 311 311 312 314 315 317 320 321 321 322 322 323 323 323 324 324 324 325 325 326 327 329 332 335 337 341 343 346 349 351 351 351 349 347 346 345 346 350 351 351 351 350 350 350 350 350 351 350 350 350 350 350 350 349 345 343 333 329 327 326 328 331 337 341 345 337 333 342 343 341 340 343 343 344 342 338 336 336 338 340 342
307 308 310 309 310 312 313 314 315 317 319 320 321 322 322 322 322 323 324 323 323 325 326 326 327 329 331 335 338 341 343 346 349 351 352 352 352 351 350 350 352 354 354 353 352 352 352 353 352 351 350 349 349 349 350 334 349 332 342 346 341 336 335 333 327 323 338 341 343 344 346 344 344 344 344 345 344 343 343 344 343 341 341 341 342
307 308 309 309 312 313 313 314 314 316 319 320 321 321 322 322 322 322 323 322 323 324 324 325 327 329 332 335 337 339 343 345 344 345 346 349 343 330 339 351 351 340 333 330 330 350 354 355 353 354 354 351 350 352 332 321 319 317 317 322 323 321 321 331 325 317 331 339 340 340 343 344 344 345 345 345 344 344 344 344 344 337 342 344 342
306 306 306 308 309 313 314 315 315 317 319 320 320 321 320 321 321 321 321 321 322 322 324 326 328 329 331 333 335 337 340 343 344 345 346 346 348 347 316 315 326 336 327 319 315 318 322 329 349 353 348 331 330 326 321 317 312 312 312 312 313 313 312 313 313 326 335 338 340 339 340 342 343 345 344 345 345 344 344 345 346 345 344 345 341
Wind_Speed
11 13 13 14 13 12 11 10 10 10 10 11 11 11 11 11 10 10 8 8 7 7 6 6 5 5 3 5 6 5 5 4 4 4 4 4 4 4 4 4 4 4 3 4 4 3 3 2 2 2 2 2 2 3 1 1 1 2 1 1 2 1 2 2 1 2 4 2 3 2 4 3 4 4 5 4 5 4 4 4 3 4 4 4 4
10 11 12 13 12 13 11 10 10 11 9 11 12 12 12 11 11 10 7 8 8 8 7 7 6 6 6 6 5 4 5 5 4 4 5 4 5 5 4 4 4 4 4 4 4 4 3 3 2 3 2 2 2 1 0 1 2 1 1 0 1 2 1 1 0 2 2 2 2 1 3 4 3 2 2 4 5 5 4 4 4 5 5 5 3
11 13 13 13 14 13 12 11 11 13 13 13 12 11 11 11 10 9 8 9 8 8 7 7 5 5 5 4 6 4 3 5 5 5 5 5 4 4 4 4 5 4 4 4 4 4 4 4 3 2 2 2 2 1 1 2 1 1 2 1 1 1 1 1 1 2 3 1 2 2 2 4 4 3 1 3 4 4 3 4 4 5 6 4 3
13 13 15 14 14 13 12 11 12 11 11 11 11 12 10 10 10 10 9 9 8 8 8 5 4 4 3 5 4 4 4 3 3 2 3 4 4 4 4 4 5 4 4 4 4 4 4 4 3 3 3 3 3 3 2 3 1 1 1 2 1 0 2 1 2 1 3 4 1 1 1 1 4 3 4 5 1 2 3 4 4 5 5 4 3
13 13 14 14 14 14 14 13 12 12 12 12 12 12 10 12 11 12 10 10 9 9 8 6 5 5 4 3 3 3 4 3 4 3 4 4 3 4 5 5 5 5 4 5 4 5 4 4 4 4 3 3 3 3 3 3 2 2 2 1 1 1 1 2 2 2 3 1 5 2 1 1 2 3 4 5 2 1 2 3 4 4 4 3 3
13 14 14 15 15 14 14 14 13 12 13 12 12 13 12 10 10 10 9 9 9 9 9 8 7 7 7 7 6 5 5 5 6 7 5 5 5 3 4 5 5 4 4 5 4 4 5 4 4 4 3 3 3 3 2 2 2 2 2 2 2 1 1 2 2 2 2 2 3 2 2 2 2 2 2 4 5 1 3 2 3 4 4 4 3
12 12 12 14 14 15 15 14 14 14 13 12 11 12 12 11 11 11 10 10 9 9 9 8 7 7 9 9 8 9 8 6 6 5 6 6 4 5 5 4 5 5 5 5 5 4 4 4 4 4 3 3 3 3 3 3 2 2 2 2 2 2 2 1 1 3 3 2 1 1 1 1 3 1 2 0 5 5 3 2 3 2 3 3 4
13 14 13 15 15 16 16 15 14 14 13 11 11 11 13 12 12 12 10 10 10 9 9 9 9 8 8 7 7 7 7 7 7 6 5 5 5 5 4 4 5 5 5 5 5 4 4 4 4 4 3 3 3 4 4 2 2 1 2 2 2 2 3 2 2 1 2 1 2 1 1 2 1 1 3 1 1 3 7 4 2 3 2 3 4
15 14 15 15 16 16 15 15 15 14 13 13 12 12 12 11 12 11 11 10 10 11 11 10 9 9 9 7 7 6 5 5 5 4 5 5 6 4 5 5 4 5 5 5 5 5 5 5 5 4 4 4 4 3 3 3 4 3 2 2 2 2 2 2 1 3 2 4 1 1 2 2 2 2 1 2 2 1 5 2 5 4 2 3 4
14 16 16 15 15 16 16 15 14 14 13 12 12 11 11 10 11 12 12 10 10 12 12 11 10 9 8 8 9 6 4 4 5 6 6 5 6 6 5 5 5 5 5 5 5 5 5 5 5 5 5 4 4 4 3 3 3 3 3 2 1 2 2 3 3 3 3 1 0 1 1 2 2 1 1 2 2 1 2 4 3 4 5 5 3
14 15 15 16 15 15 14 16 16 14 12 13 12 12 12 12 13 14 13 10 10 12 12 13 11 9 9 9 9 8 7 6 6 5 5 6 6 6 6 5 5 5 5 5 5 5 5 5 5 5 4 4 4 4 4 4 3 3 2 2 3 3 2 2 2 3 2 1 1 1 2 2 2 2 2 1 0 1 3 3 3 1 3 5 4
15 15 16 15 14 13 14 15 15 15 14 14 13 12 12 12 12 14 12 12 11 11 12 12 11 10 9 9 9 8 8 7 9 9 8 8 8 7 6 5 5 4 4 5 5 5 4 5 5 4 4 4 5 4 4 3 3 2 3 3 3 2 2 2 2 3 3 1 1 1 2 2 1 2 2 2 1 1 1 3 4 4 2 3 5
15 15 15 15 15 15 15 16 15 15 15 15 15 14 13 13 14 14 14 13 12 12 13 13 12 12 11 10 9 8 8 9 8 8 8 8 7 7 6 6 5 5 6 5 5 6 5 5 5 5 5 5 5 4 4 4 3 2 3 3 3 3 3 3 3 4 3 3 3 1 1 1 3 2 2 2 1 2 2 2 1 1 2 4 3
16 16 16 16 16 15 16 15 16 15 16 16 16 14 13 13 14 15 15 14 12 12 13 13 13 13 11 10 9 8 9 9 8 8 8 7 7 8 7 7 7 7 6 7 6 6 5 5 5 5 5 5 5 5 4 4 3 3 3 3 4 4 3 4 4 3 3 3 1 1 2 2 2 2 2 2 2 1 1 2 3 1 1 3 3
15 15 16 17 16 16 15 16 16 16 17 16 15 14 14 14 14 15 14 13 13 13 12 13 12 12 11 10 9 8 8 8 8 7 7 8 7 7 7 7 7 7 7 7 6 6 6 5 6 5 5 5 5 4 4 3 3 3 3 4 3 3 3 3 3 3 4 4 3 3 2 2 2 2 3 3 2 2 2 2 1 4 4 2 3
15 16 17 17 17 16 15 15 16 15 17 16 16 15 15 14 15 16 16 15 14 13 13 13 12 11 11 11 11 10 8 7 6 6 6 7 8 8 8 7 7 6 6 6 6 6 6 6 5 6 5 5 5 5 4 4 4 4 3 3 5 2 3 4 4 3 4 4 3 1 2 3 2 2 2 2 3 2 2 2 2 3 1 5 3
15 16 17 17 16 16 16 16 16 16 16 17 17 16 16 15 15 15 15 14 15 15 14 13 12 11 12 12 10 9 10 10 9 10 9 8 7 7 7 8 7 6 6 5 6 6 6 6 6 5 6 5 5 5 5 4 4 4 4 4 5 4 4 5 3 3 3 3 2 3 3 3 2 1 2 2 2 2 2 3 3 4 3 1 3
15 15 14 16 17 18 17 16 18 18 19 18 18 17 16 16 16 17 15 15 14 14 13 12 12 12 11 12 11 11 11 11 9 9 8 7 7 6 6 6 8 7 6 5 6 7 6 7 6 6 5 5 6 5 5 5 4 4 4 4 4 3 4 3 3 3 3 2 2 2 2 2 2 2 2 1 1 2 2 2 3 2 3 2 2
14 15 14 15 16 17 17 18 18 18 18 18 17 17 15 15 16 17 18 17 17 14 13 12 12 11 10 12 13 12 11 10 9 7 6 8 9 8 8 8 6 6 6 6 6 6 6 7 6 6 6 6 6 6 5 5 5 4 4 4 3 4 4 5 3 3 3 2 3 3 2 2 2 2 2 1 1 2 2 2 2 2 3 2 3
14 15 16 16 17 17 17 17 17 17 17 16 17 16 18 17 16 16 15 14 15 16 15 14 13 12 11 10 10 10 10 10 9 7 8 9 9 9 9 8 9 6 7 6 6 6 7 7 6 6 6 6 6 6 6 5 5 5 5 4 4 5 5 5 4 3 2 3 3 4 3 3 1 1 2 2 2 2 1 1 2 2 2 1 3
14 15 15 16 17 16 16 15 15 15 14 14 15 18 17 16 16 17 17 16 15 15 14 13 12 12 12 12 12 11 11 10 10 9 9 9 8 8 8 9 6 7 6 7 7 7 7 7 7 6 7 7 7 6 6 6 6 6 5 5 5 5 5 5 4 4 3 3 3 4 5 3 1 2 2 2 2 2 1 1 1 2 2 2 3
12 12 11 12 13 14 14 13 13 13 14 16 16 15 15 16 16 16 15 15 15 15 14 12 11 11 13 12 12 11 10 9 11 10 10 9 8 8 8 6 8 8 7 8 8 6 6 7 7 7 7 7 7 7 6 6 6 6 6 4 5 6 6 5 4 5 3 3 3 4 5 4 2 3 2 2 2 1 1 2 2 3 3 3 3
6 4 6 7 7 8 10 12 13 15 14 15 15 15 16 17 17 15 16 16 14 14 13 12 12 12 13 12 11 11 11 11 12 11 10 10 9 9 7 8 9 8 7 8 8 7 7 7 7 7 7 7 7 7 6 6 7 7 7 6 5 7 7 6 6 6 5 4 4 4 5 4 2 3 3 3 2 2 1 2 3 2 3 3 3
11 2 6 4 5 7 7 9 11 11 13 15 14 15 15 15 16 15 17 17 15 13 12 12 13 13 13 12 12 11 11 10 11 11 13 12 11 9 7 9 9 7 7 7 8 8 6 7 7 7 7 7 7 6 6 6 7 7 7 7 6 6 6 6 7 6 6 5 6 5 5 4 3 4 4 3 2 2 2 2 3 2 3 3 3
17 16 9 3 8 8 7 7 8 7 9 10 12 13 14 14 14 15 15 15 14 13 13 13 12 12 12 13 12 11 11 13 12 10 12 11 11 10 8 9 9 8 8 7 7 7 7 7 8 9 8 8 8 7 7 7 6 6 6 6 6 6 7 7 7 7 6 6 6 7 5 4 4 5 5 4 3 4 3 3 3 3 3 3 2
17 17 16 14 11 6 2 8 7 8 9 8 9 10 11 12 13 14 14 13 14 13 13 13 12 13 13 13 13 12 12 13 12 11 12 11 10 10 10 8 9 10 9 8 9 7 8 9 9 9 9 9 8 8 8 8 7 6 6 6 6 7 7 7 7 7 7 6 7 7 6 5 5 6 5 5 4 4 3 4 4 3 3 2 3
16 13 13 15 16 13 13 10 2 9 8 9 12 11 12 11 12 13 12 13 13 13 13 13 13 13 13 13 13 14 13 12 12 13 11 10 10 10 10 10 9 10 10 8 8 9 8 9 9 9 9 9 9 8 8 8 8 7 7 7 6 7 7 6 7 7 7 7 7 7 6 6 7 7 6 6 5 5 4 5 5 4 3 4 4
16 17 18 16 13 15 16 11 13 9 3 7 9 11 12 12 13 13 13 12 11 12 12 13 13 13 13 13 13 12 13 13 12 11 12 12 12 12 12 11 9 10 10 11 9 10 9 8 9 9 9 7 7 7 7 8 8 8 7 7 7 7 7 7 7 7 7 7 7 7 7 7 7 7 7 6 6 6 4 5 4 4 4 4 4
16 14 15 14 14 14 13 14 12 12 12 10 3 9 9 10 11 11 12 13 13 13 13 13 13 13 13 13 12 11 11 12 12 11 11 12 12 12 12 11 11 11 9 11 11 10 9 9 9 9 9 8 7 7 8 8 8 8 7 8 8 8 7 7 7 7 6 7 7 7 7 7 8 9 11 9 7 7 6 6 6 5 5 5 5
14 14 13 12 13 13 13 13 14 15 14 11 9 9 5 11 11 12 12 12 12 13 13 14 14 14 12 12 11 11 11 11 11 12 12 12 11 11 11 12 12 12 11 10 10 10 10 11 10 10 9 8 9 8 10 15 13 9 9 8 7 8 8 7 7 6 6 7 8 7 7 11 12 13 13 13 13 12 11 8 7 6 6 5 5
14 14 14 13 12 12 14 14 14 14 13 10 11 9 9 6 11 13 14 13 13 13 14 14 15 14 13 12 11 11 11 11 12 12 11 11 12 11 11 10 11 11 11 10 10 11 11 10 11 11 10 9 8 8 15 16 16 16 11 9 9 8 8 7 7 7 7 7 6 7 6 9 11 12 12 14 13 13 13 13 13 11 8 7 6
14 13 14 15 15 15 14 14 13 13 12 12 11 11 10 9 8 10 13 13 14 14 14 15 14 13 13 13 12 12 12 12 12 12 12 12 11 11 11 11 11 12 10 9 10 11 11 10 9 10 11 10 10 12 16 17 17 18 15 11 8 8 7 7 7 8 7 7 7 6 6 5 7 8 7 8 11 13 14 14 14 13 12 12 11
14 14 14 13 13 13 13 13 12 11 12 12 10 11 10 11 9 10 7 13 15 15 15 14 14 14 14 13 12 12 13 13 13 13 12 11 11 11 12 12 12 12 10 9 11 11 11 11 11 11 12 11 11 14 16 17 17 18 18 15 9 9 8 7 8 8 9 9 7 5 5 6 6 12 10 8 7 7 10 14 14 13 13 13 13
11 12 12 12 12 11 11 12 11 12 11 10 9 9 10 9 10 8 8 8 13 13 15 15 15 15 16 16 16 16 15 14 13 13 12 12 12 13 13 12 11 10 10 11 12 12 12 11 11 12 12 11 12 14 17 18 18 18 18 14 9 10 9 9 10 9 7 8 9 9 8 7 6 7 7 7 7 8 7 6 7 7 7 10 13
12 13 13 12 12 13 13 13 13 14 12 11 11 11 10 11 11 11 7 8 6 12 13 13 15 15 14 14 15 16 18 17 16 14 13 13 13 13 13 12 11 11 11 13 13 12 12 12 13 13 12 12 11 17 16 18 18 19 18 14 10 9 9 9 10 10 10 10 10 9 9 9 9 7 7 8 8 8 7 6 7 7 7 7 7
10 12 12 12 13 12 12 11 12 12 12 9 11 10 10 9 10 8 9 8 9 9 7 11 14 14 14 14 13 12 12 12 14 14 14 14 14 14 14 12 11 11 11 10 10 10 12 13 13 13 12 13 12 17 17 17 18 18 18 9 8 10 10 10 10 10 10 10 10 10 10 10 10 10 11 14 12 8 7 8 8 8 7 6 7
9 9 11 10 9 11 11 10 10 11 11 11 10 10 9 10 9 7 7 8 8 6 8 11 10 7 9 10 12 13 13 13 12 13 14 14 14 14 13 10 11 11 12 11 11 12 12 12 13 12 13 13 14 16 17 18 18 18 12 9 9 9 9 11 11 11 10 10 10 11 11 9 10 10 12 14 14 12 8 8 8 8 6 6 8
9 8 7 8 8 8 9 10 11 11 12 10 10 10 10 8 7 7 7 6 4 4 4 7 9 9 8 8 10 12 13 13 12 13 14 14 13 11 12 10 12 13 13 13 13 11 11 11 13 14 13 13 14 15 17 18 18 18 14 11 10 9 10 10 11 10 9 10 11 16 14 11 11 12 13 14 14 12 8 8 8 8 8 8 9
9 10 10 10 10 9 9 8 8 10 12 12 10 8 7 8 8 7 6 8 8 7 7 7 10 11 10 10 9 11 12 13 13 13 13 13 12 12 12 11 11 11 12 11 11 10 12 11 11 13 17 16 14 15 17 18 19 18 15 10 10 9 10 10 10 10 10 10 10 12 17 16 13 14 15 15 15 12 9 9 8 8 8 9 10
8 8 9 9 9 11 12 12 11 9 10 11 12 10 9 9 10 8 7 6 7 8 8 8 9 9 10 9 10 9 10 11 12 12 11 11 11 10 10 10 10 9 10 9 10 10 12 11 11 12 11 13 15 14 14 19 19 19 19 13 9 9 11 12 11 10 10 9 10 10 12 17 18 17 17 17 16 16 12 9 7 8 8 11 8
11 9 10 8 9 8 10 10 10 12 11 11 11 10 9 8 8 8 7 8 9 8 7 6 7 7 10 11 8 7 9 10 9 8 5 6 7 9 9 10 12 11 11 11 11 11 12 12 12 12 13 13 13 14 14 18 19 19 20 17 10 12 12 11 11 11 9 9 9 9 9 14 18 19 19 18 17 17 16 11 10 10 11 13 9
9 11 9 7 9 10 10 10 9 10 11 10 10 10 8 8 8 8 9 10 11 10 8 7 7 7 7 8 8 9 8 4 6 7 7 8 8 8 9 11 10 10 12 13 13 12 12 12 12 12 12 14 14 18 14 16 19 19 20 22 13 13 14 11 11 10 10 10 10 10 10 12 18 19 19 18 19 17 18 11 12 15 17 15 12
16 14 11 10 7 8 9 10 9 9 10 10 11 11 8 8 8 9 9 8 9 11 11 10 9 7 5 5 5 7 7 3 3 3 7 11 10 11 12 11 11 12 13 14 14 12 12 12 12 10 11 12 12 12 18 15 17 19 20 21 23 18 18 13 12 12 12 12 10 10 11 14 17 18 18 19 19 20 14 12 17 17 16 17 11
12 12 12 11 12 7 7 8 9 8 8 9 9 12 11 10 10 10 10 10 8 7 9 9 8 7 5 4 4 7 8 5 4 4 5 7 8 10 10 10 11 12 12 13 12 12 12 13 13 12 11 11 11 11 13 19 16 19 19 22 23 23 19 13 13 12 11 10 10 10 10 16 18 18 19 19 19 17 13 17 17 17 17 12 5
12 14 14 11 10 13 10 8 6 9 8 7 7 8 14 14 11 10 10 10 10 9 9 7 5 5 5 4 4 5 6 4 5 5 6 6 8 7 7 9 10 12 12 13 13 12 12 13 12 13 12 12 11 10 10 13 20 18 20 22 23 23 22 20 15 12 11 10 12 15 15 16 17 18 19 17 14 14 17 16 17 17 11 3 6
10 11 13 14 13 12 10 11 7 5 8 7 6 5 9 9 10 11 11 10 10 10 9 9 8 6 5 6 6 6 7 7 7 6 7 7 7 7 8 9 10 12 13 13 13 12 12 12 13 13 13 12 10 9 11 10 11 15 16 20 23 22 22 22 21 16 17 18 16 15 16 14 12 11 9 7 8 10 14 15 12 9 6 7 7
11 11 11 13 13 14 12 11 13 8 5 7 8 6 7 8 9 9 10 10 10 10 9 10 9 8 7 6 7 7 7 7 6 5 4 4 5 5 8 10 12 14 13 14 13 13 12 11 12 12 12 10 9 10 10 10 9 9 9 10 13 13 17 17 13 11 11 10 11 10 8 10 9 14 14 12 9 8 7 6 7 7 8 8 8
10 10 9 11 12 14 15 13 10 11 8 6 7 8 8 9 9 10 10 9 10 10 9 9 11 10 8 6 7 9 8 7 6 5 5 5 7 10 12 15 17 17 15 13 13 13 13 12 12 11 9 10 10 11 11 12 11 9 9 9 9 9 9 9 10 9 9 11 9 6 7 6 6 5 6 5 6 6 7 6 7 7 8 9 10
11 11 9 10 11 13 16 15 13 11 10 8 7 7 8 8 9 10 10 9 9 10 10 10 9 8 7 6 7 7 6 6 6 7 7 8 9 10 13 16 18 15 14 13 12 13 14 13 12 12 12 12 12 13 14 14 13 15 14 9 9 10 9 9 16 18 9 6 5 5 6 6 6 7 6 6 5 6 6 7 8 8 8 8 7
12 10 11 11 12 13 14 14 14 10 9 8 8 7 7 8 8 9 10 9 10 10 9 9 8 8 7 7 7 7 6 6 7 8 9 9 12 17 15 13 13 17 22 21 17 14 14 13 13 13 13 14 15 15 18 16 17 18 19 19 16 16 16 14 14 15 11 7 8 8 8 8 7 7 8 8 7 7 7 8 9 10 9 9 8
14 13 13 12 12 12 12 13 14 12 9 8 7 6 6 7 8 9 10 10 9 9 9 8 8 7 7 8 8 8 7 7 7 8 9 9 10 10 17 22 22 18 18 21 20 21 19 15 13 11 12 17 18 15 11 10 15 16 18 18 17 18 18 16 14 12 8 9 8 9 9 9 9 9 9 9 8 8 8 9 9 10 10 11 11
Wind_Direction
181 181 180 181 181 179 176 174 178 178 175 175 173 175 174 174 174 182 176 169 163 169 172 166 171 170 165 185 197 191 190 190 189 187 185 179 170 167 168 175 175 166 152 147 156 171 168 161 142 131 125 146 173 197 190 185 114 109 103 27 27 60 55 1 63 111 112 50 14 2 317 266 255 228 222 217 223 228 227 233 238 240 235 233 233
175 182 185 182 183 181 177 177 175 174 183 177 180 180 177 173 179 180 172 176 173 178 180 179 182 186 171 183 174 173 177 181 193 197 192 177 167 167 171 165 168 172 157 155 154 165 161 170 174 172 171 185 186 149 165 185 109 92 95 49 40 82 83 314 265 130 26 144 133 327 325 318 279 238 224 228 222 223 221 228 225 236 240 233 225
183 186 183 186 185 181 180 181 181 183 179 181 184 179 177 177 179 176 180 182 181 177 177 189 189 176 172 175 173 155 200 194 194 191 177 170 167 164 159 161 166 170 160 158 155 172 171 166 183 167 174 188 189 284 288 237 101 92 85 105 347 45 60 255 278 161 136 147 113 72 7 357 327 342 284 254 230 228 224 233 231 238 243 232 218
187 184 187 187 186 183 184 184 184 182 181 183 181 182 182 182 177 177 182 186 183 180 183 179 168 164 161 154 166 151 170 175 145 108 153 148 168 159 154 162 170 169 162 161 161 167 169 177 161 171 182 186 181 197 217 236 162 123 100 101 104 3 13 346 357 49 130 133 29 28 248 103 343 327 322 297 290 242 222 229 226 241 245 234 210
188 185 187 187 187 188 188 187 183 184 185 187 183 184 186 185 182 178 179 186 186 182 177 156 143 135 120 88 108 85 55 114 132 154 177 183 150 164 181 167 172 171 166 170 168 168 168 165 171 173 172 178 163 191 202 218 196 157 150 127 104 137 55 326 333 46 77 116 132 104 4 14 235 274 332 292 354 266 216 241 235 244 251 248 242
193 189 187 187 188 188 191 187 186 188 189 189 186 185 183 183 182 179 178 182 186 182 170 160 166 160 151 154 164 177 167 164 185 187 176 182 197 167 158 175 176 175 168 173 176 160 169 174 170 171 176 179 180 191 201 205 208 197 183 176 139 136 111 65 327 353 54 105 123 135 165 128 301 293 25 312 322 278 298 252 227 234 236 243 243
199 196 185 187 190 190 191 189 190 189 193 187 186 186 185 181 180 180 180 181 182 180 170 167 166 171 175 180 183 187 182 197 188 184 179 193 177 165 178 174 181 178 178 176 176 172 162 169 171 180 189 178 188 162 195 217 220 210 163 169 172 129 102 75 275 287 353 83 111 109 92 92 153 58 314 5 341 320 345 342 311 292 259 250 255
195 197 191 189 189 191 192 191 190 193 188 185 186 185 186 182 180 182 182 181 179 173 173 178 179 180 181 180 185 193 194 189 183 182 182 175 175 183 162 186 184 186 178 178 178 175 166 172 173 175 189 189 194 201 204 211 213 225 197 177 146 145 138 144 265 277 233 284 77 72 55 59 72 95 145 212 216 300 315 323 255 312 290 248 248
195 196 196 190 191 193 191 191 193 190 188 187 188 187 186 182 181 182 185 180 178 173 174 184 185 185 185 179 186 198 187 177 168 171 174 171 184 179 179 182 188 188 187 180 178 176 182 177 176 179 189 199 208 202 201 193 205 213 212 183 174 152 154 145 139 252 215 234 17 23 79 51 57 34 100 100 163 182 284 284 307 319 315 268 255
200 200 197 195 190 192 191 188 188 192 189 188 189 184 183 180 182 183 188 184 178 177 177 182 189 186 184 185 189 186 175 156 161 173 175 173 189 191 190 179 189 196 194 186 180 183 187 178 178 185 195 196 209 207 191 197 199 199 207 216 183 195 158 166 199 240 219 295 325 120 60 43 44 77 76 112 67 127 250 306 318 338 341 308 324
198 201 201 200 192 188 184 189 191 189 186 185 188 187 184 184 184 186 190 184 179 182 179 183 187 188 191 187 188 181 176 167 166 179 172 175 191 195 187 196 185 197 186 193 192 185 188 187 185 191 189 193 206 195 202 206 201 193 188 189 206 207 180 170 227 226 196 199 190 168 172 195 209 263 266 142 104 284 330 314 313 253 261 317 293
197 197 201 200 196 189 187 190 189 189 185 186 189 187 187 188 186 188 189 186 183 184 183 185 185 191 195 188 187 183 173 177 184 184 184 187 189 192 196 185 198 196 189 196 200 194 189 195 197 189 188 188 207 205 207 202 192 177 179 190 212 201 168 174 203 246 238 209 237 190 192 180 176 198 191 180 148 262 164 275 287 309 294 226 285
194 197 197 197 197 191 190 191 188 187 189 187 187 187 188 189 188 187 191 189 188 183 186 187 187 191 193 192 190 177 181 184 189 189 185 189 189 189 183 195 190 200 203 198 201 193 191 192 191 191 193 199 205 196 212 189 183 179 190 209 214 212 196 185 198 229 223 215 235 162 193 193 229 215 171 170 95 113 167 315 259 179 263 305 306
194 195 196 197 197 194 191 189 188 190 192 188 186 187 187 189 189 189 192 190 188 187 189 188 193 192 191 192 189 178 187 188 190 190 188 189 185 193 190 194 194 201 194 205 195 185 194 199 196 202 199 195 196 200 200 194 176 186 191 210 229 226 191 189 208 228 232 235 188 207 210 222 242 189 206 179 174 159 264 255 282 276 214 290 296
194 195 197 197 197 192 189 189 189 191 191 188 187 187 186 190 189 191 192 192 189 190 189 193 195 194 189 191 187 186 189 191 194 191 185 185 191 193 199 200 200 203 202 204 186 186 192 191 196 198 199 198 191 191 200 190 185 180 195 222 242 225 216 200 209 211 239 237 211 202 221 228 237 200 201 221 183 203 200 205 196 314 333 350 341
195 196 197 197 196 193 189 189 189 189 189 189 188 186 188 191 189 191 190 188 191 191 193 194 196 195 191 188 191 191 193 192 191 191 193 191 190 193 199 202 207 202 203 192 192 186 188 193 194 202 195 196 195 195 190 184 185 189 207 209 239 213 214 213 218 207 234 242 243 193 195 249 222 214 219 231 209 204 208 178 157 145 122 324 332
198 198 197 196 194 194 192 188 189 187 187 190 189 187 187 187 188 191 193 191 192 192 193 194 194 193 196 193 189 190 193 194 197 196 192 194 191 197 200 205 199 201 200 190 187 189 191 190 196 200 195 193 192 195 191 191 187 194 199 199 225 218 207 218 209 211 236 247 247 225 227 250 255 205 233 233 222 196 204 195 184 189 159 108 334
201 201 200 197 195 193 192 191 189 187 188 189 189 186 186 187 187 188 190 191 194 193 194 194 193 196 196 195 193 194 197 201 201 199 193 185 195 199 204 198 206 203 198 191 186 184 194 195 196 200 195 189 195 188 186 190 184 199 201 208 220 189 217 229 215 205 227 226 251 257 222 250 247 247 259 250 219 216 202 190 192 191 162 153 168
196 197 197 198 198 196 194 193 190 189 188 187 186 185 186 188 190 189 190 191 189 191 194 194 194 196 196 197 195 197 199 202 200 194 185 193 197 199 200 211 209 204 202 197 187 188 187 200 198 196 192 197 192 192 182 182 184 195 197 211 201 187 206 225 214 199 219 207 242 262 248 251 257 269 279 273 258 217 216 167 165 155 196 159 145
199 197 197 197 198 197 195 191 189 189 187 186 184 185 187 189 188 192 193 191 190 193 191 192 194 195 198 197 201 199 197 198 197 187 190 201 205 198 203 205 210 200 207 202 200 192 190 192 197 192 193 194 193 193 185 179 179 195 194 203 197 187 201 218 224 198 211 202 222 247 246 240 233 244 271 275 266 254 194 195 162 159 163 166 130
203 200 198 197 195 197 195 190 191 189 185 182 184 186 189 187 190 190 188 190 195 195 191 194 190 197 196 197 198 197 200 197 196 194 198 206 206 204 205 209 193 206 201 202 209 206 196 197 195 202 200 201 202 199 190 182 182 191 197 201 195 187 202 215 215 223 200 196 211 243 262 257 206 248 256 277 278 273 232 204 147 151 172 169 165
209 203 201 197 198 197 193 187 187 188 183 185 186 185 187 188 191 190 190 193 191 191 194 192 192 195 197 197 198 197 198 197 199 200 205 207 204 206 207 195 200 210 196 204 209 207 199 194 196 207 209 207 206 206 190 183 190 193 197 192 195 192 199 209 201 229 213 196 198 230 257 263 228 240 256 260 268 278 247 232 208 193 201 198 191
206 211 193 190 198 199 195 192 189 186 188 189 184 187 187 189 190 190 190 195 192 192 191 188 191 193 198 198 196 196 195 198 202 204 207 205 205 208 196 199 210 210 200 207 209 206 201 194 204 209 211 213 212 208 197 194 203 200 199 200 199 193 198 202 208 218 213 201 218 221 245 248 234 245 235 247 236 244 223 231 242 211 224 216 185
7 108 141 147 160 172 184 196 194 187 191 191 189 189 188 189 190 189 194 193 191 191 188 190 192 197 196 194 195 196 193 197 203 208 211 209 207 204 192 204 211 209 203 209 210 204 196 196 205 209 208 215 212 209 200 207 210 204 205 206 199 201 204 208 213 213 207 198 214 226 234 219 227 244 251 240 226 218 210 211 232 221 222 227 198
17 12 12 103 149 168 187 191 191 195 189 191 197 193 190 190 189 192 195 192 192 189 189 191 191 192 194 197 198 193 196 199 205 207 212 212 210 203 195 202 204 207 209 207 210 197 196 196 206 209 209 210 214 206 207 210 215 208 209 206 204 207 210 211 211 213 210 201 207 221 220 192 196 230 250 247 224 230 214 208 223 220 216 224 206
20 18 20 16 12 7 181 174 178 185 181 183 194 195 197 193 193 194 192 190 191 189 191 190 190 193 197 197 198 197 200 201 204 206 210 210 210 209 203 203 198 205 206 205 206 197 200 204 208 210 209 214 213 208 211 214 214 208 206 207 205 208 214 214 215 214 209 202 211 218 216 193 198 213 233 239 231 230 214 219 226 222 219 213 227
23 21 18 21 22 17 13 354 236 182 182 180 185 190 193 190 194 194 193 191 189 189 189 191 191 196 197 199 197 201 200 202 204 208 208 207 207 206 206 208 201 204 202 201 201 200 202 204 208 206 208 210 211 209 212 216 218 215 214 212 211 212 216 215 218 219 215 210 211 215 212 201 207 211 220 223 223 224 212 226 219 227 210 210 226
26 24 22 19 18 20 16 10 8 346 229 181 186 193 191 191 193 191 190 188 189 188 191 193 194 197 200 200 202 199 201 203 204 204 205 207 207 207 207 208 201 204 206 208 203 202 202 198 204 203 208 203 202 206 211 215 215 212 210 215 215 214 217 220 224 223 220 219 215 216 216 211 212 214 216 217 202 221 210 232 215 205 207 210 226
17 15 15 15 19 15 12 14 8 11 9 350 290 196 191 197 192 192 188 192 185 187 190 193 196 199 202 202 199 199 202 203 204 203 206 208 209 209 208 206 205 208 208 210 210 206 202 203 205 205 203 199 197 205 207 209 213 212 211 217 216 217 217 220 225 226 221 222 222 220 219 218 216 222 218 221 209 200 204 223 226 190 206 210 221
9 9 7 8 11 12 14 12 13 12 7 3 359 345 247 192 193 190 194 191 182 189 190 193 198 201 201 199 197 199 200 201 202 205 207 208 209 210 210 211 211 211 212 210 210 208 207 207 208 209 208 203 206 207 206 206 207 210 208 215 218 221 221 222 223 225 226 222 225 223 226 226 223 225 226 226 226 220 217 217 227 187 204 206 217
359 0 2 2 2 7 12 13 10 8 2 1 354 343 343 280 198 191 194 188 186 189 193 194 199 199 198 195 195 199 198 200 204 206 206 206 210 209 210 213 214 214 215 213 211 213 213 212 211 212 211 212 211 210 206 203 207 209 209 212 216 222 220 221 221 223 229 223 222 221 225 230 232 232 232 229 229 228 227 229 230 220 207 201 213
353 352 356 358 1 4 3 2 0 359 0 0 352 349 348 351 320 219 192 190 188 192 193 197 198 196 195 195 197 196 198 203 201 205 204 206 207 208 212 212 213 215 216 213 216 217 218 217 216 217 218 218 219 217 207 206 205 208 207 212 211 219 218 218 220 222 229 229 226 219 220 216 220 225 226 228 227 229 229 231 233 235 231 224 218
349 350 352 353 355 356 355 351 352 353 356 350 348 349 346 338 325 322 254 192 194 192 194 195 197 195 195 195 194 195 201 203 204 204 203 202 202 207 212 212 214 215 210 210 217 216 218 218 219 220 224 222 226 217 211 209 209 208 208 208 218 217 215 219 220 222 229 233 232 227 226 218 222 223 224 224 223 228 226 228 232 235 236 233 235
346 347 347 346 350 351 349 344 338 343 342 337 348 343 338 327 328 314 321 238 193 195 193 196 196 196 194 189 188 192 197 202 204 203 201 200 201 208 210 211 214 209 208 215 216 216 216 215 217 220 225 227 227 225 211 210 210 209 207 202 218 217 219 223 223 221 222 225 227 230 231 236 223 215 217 214 214 223 222 215 217 217 222 233 232
347 344 346 347 344 344 348 344 345 342 338 341 349 349 339 345 343 343 341 346 267 202 194 196 198 198 198 201 200 196 196 197 197 198 198 201 204 209 210 211 210 208 209 214 216 215 217 216 218 218 222 227 230 227 217 212 211 210 208 196 211 217 222 226 225 224 224 225 226 224 228 235 237 222 210 206 208 211 211 218 223 222 222 224 221
348 341 338 341 344 342 338 338 334 333 334 344 347 336 339 341 337 343 356 1 8 334 272 216 204 202 199 200 204 214 220 209 198 194 196 202 205 206 209 208 208 212 215 216 219 219 220 220 220 218 219 230 232 226 220 217 213 211 204 192 203 212 218 225 228 227 224 224 225 225 228 231 236 234 225 211 214 207 205 215 221 228 231 230 232
333 338 333 330 334 333 328 337 334 331 333 343 335 337 338 334 331 336 356 9 359 341 329 322 298 254 212 205 202 205 209 213 209 201 200 203 204 207 211 203 207 212 213 213 216 215 219 220 220 215 219 228 234 227 220 220 216 212 195 201 202 208 216 221 228 227 225 224 224 225 225 231 233 237 231 214 213 208 213 213 220 228 228 235 244
324 325 322 331 331 327 330 339 341 333 334 331 332 335 337 322 318 337 2 355 328 327 331 307 291 284 267 229 212 209 210 210 207 208 207 207 206 208 210 200 207 210 214 216 216 217 218 218 218 218 216 222 231 227 215 218 216 209 193 201 203 205 215 219 228 227 224 224 225 221 220 225 231 236 231 219 211 201 216 216 220 226 232 235 245
320 324 329 335 333 335 336 334 337 344 332 327 328 336 339 329 338 343 350 345 351 349 341 323 300 284 261 249 238 222 215 210 207 210 211 209 207 207 208 203 208 212 218 219 216 219 221 220 216 219 218 219 230 230 214 214 213 207 193 205 201 204 214 221 222 227 222 223 227 226 224 224 225 231 228 222 212 198 214 215 216 223 233 240 242
323 320 331 325 332 335 345 347 347 336 323 332 335 338 351 349 337 336 347 355 349 337 329 330 312 305 300 267 242 231 221 214 210 212 211 213 212 210 210 204 210 210 219 217 217 217 222 222 218 219 218 218 227 232 218 210 212 206 193 197 200 200 214 219 220 222 224 220 224 228 226 223 222 224 224 221 215 202 212 218 207 219 226 241 245
320 325 328 324 332 341 338 337 334 331 335 339 340 339 346 346 340 329 345 346 333 321 319 312 307 303 301 308 311 258 220 210 208 204 207 238 224 222 215 208 218 217 220 222 221 221 222 228 223 221 222 221 223 228 226 210 210 204 194 192 202 208 214 215 217 220 220 221 220 221 226 216 215 221 223 221 216 210 213 219 216 223 223 235 242
314 318 324 327 329 328 327 330 339 331 329 330 341 344 338 339 339 334 338 338 326 320 312 308 285 273 272 260 282 310 317 275 206 179 180 203 221 220 219 219 219 217 217 222 222 223 226 228 228 223 223 226 222 219 227 215 208 204 194 192 202 210 208 209 216 222 221 224 223 220 222 213 209 214 219 220 219 216 214 214 224 224 232 233 237
323 324 323 324 325 321 319 325 328 334 331 326 334 340 339 338 337 329 331 328 325 318 314 306 289 273 275 250 236 258 251 263 316 275 206 208 213 216 218 220 219 219 221 224 223 223 225 229 230 227 226 227 224 221 216 221 209 203 196 195 204 212 203 204 213 221 220 224 220 220 222 213 207 211 214 217 218 218 212 217 226 229 232 235 237
310 310 312 319 317 310 308 312 321 323 325 328 336 333 334 341 336 333 323 322 317 298 285 279 286 281 287 303 257 233 238 236 222 227 266 258 226 213 217 218 218 219 222 224 226 223 224 229 230 231 229 227 223 221 212 212 214 201 199 198 205 212 204 206 213 223 221 221 220 217 217 210 206 207 211 215 218 213 211 218 224 231 236 238 236
306 307 310 312 311 315 314 307 305 316 320 324 328 332 330 332 330 323 319 317 312 302 288 272 249 267 282 282 248 256 256 218 203 209 227 240 260 259 237 226 223 225 224 225 226 220 221 225 228 231 233 230 222 217 221 208 208 205 200 201 205 207 213 210 214 224 223 221 220 214 212 209 208 208 210 214 219 216 217 220 219 225 230 211 218
303 306 310 311 311 307 305 306 300 307 313 315 317 318 317 310 315 321 319 312 313 312 307 299 293 281 281 289 281 265 252 237 231 217 211 210 223 234 246 246 236 230 227 225 226 220 221 223 228 231 232 231 222 220 223 216 199 207 204 205 204 205 210 212 216 222 217 219 218 214 213 214 211 209 202 197 198 210 215 220 224 217 210 212 205
297 296 305 309 311 308 304 306 305 314 306 309 316 314 305 307 312 314 312 312 312 311 307 305 301 302 297 295 290 286 286 282 276 264 240 232 232 238 239 244 243 241 229 226 224 221 221 222 225 228 231 229 226 225 223 219 203 192 193 198 201 210 214 216 224 236 234 229 224 216 205 194 192 196 202 209 208 197 180 195 207 204 213 214 212
287 291 295 298 298 297 298 301 300 308 312 308 309 314 315 315 315 317 317 313 312 311 307 304 304 302 301 299 289 279 274 277 278 270 268 252 225 222 226 233 228 227 223 222 220 218 220 219 223 225 223 224 226 227 224 217 209 194 194 188 183 183 181 184 203 214 212 223 219 196 182 176 181 178 201 196 200 184 187 184 194 197 207 213 217
289 291 292 286 289 291 291 292 294 299 305 310 309 311 316 315 315 313 312 313 308 308 304 293 289 290 291 292 283 279 272 266 262 260 252 242 236 225 217 220 222 222 220 217 213 217 217 216 217 219 216 221 225 227 228 214 205 197 194 188 176 188 185 193 210 207 197 211 209 200 202 196 195 201 198 210 195 185 197 203 199 198 207 211 209
282 282 282 281 279 280 282 285 288 293 296 300 304 307 310 313 314 314 314 308 307 304 299 293 288 286 288 287 286 285 281 274 273 269 267 262 241 234 236 233 235 226 224 224 220 220 218 214 218 221 212 215 219 223 226 204 196 199 202 196 193 189 191 196 202 187 187 190 194 201 203 202 201 202 211 211 202 190 200 205 213 212 212 217 212
285 285 281 277 275 273 274 276 281 288 290 293 294 299 305 311 313 311 312 308 304 300 297 294 289 284 280 282 284 284 275 264 264 268 268 268 279 257 237 238 241 238 225 226 227 232 235 224 214 228 225 227 238 245 241 187 194 203 202 201 196 190 188 186 142 137 183 199 194 197 204 207 212 210 215 214 203 197 202 212 217 214 216 218 216